GW7357 Weather Reports


Display with metric or nautical units.
time (UTC)temp
F
wind
direction
speed
MPH
gust
MPH
rain 1hr
in
rain 24hr
in
rain mn
in
humidity
%
barometer
mb
20260504182712 70 291 2.0 10.0 0.00 0.00 0.00 32 1012.0
20260504182209 70 46 3.0 5.0 0.00 0.00 0.00 33 1012.0
20260504181707 70 83 3.0 7.0 0.00 0.00 0.00 32 1012.2
20260504181204 70 110 3.0 6.0 0.00 0.00 0.00 31 1012.2
20260504180703 70 3 5.0 7.0 0.00 0.00 0.00 31 1012.3
20260504180201 70 0 4.0 7.0 0.00 0.00 0.00 32 1012.6
20260504175658 69 316 6.0 10.0 0.00 0.00 0.00 31 1012.4
20260504175155 70 284 4.0 12.0 0.00 0.00 0.00 31 1012.7
20260504174653 70 86 3.0 8.0 0.00 0.00 0.00 32 1012.9
20260504174149 69 44 5.0 6.0 0.00 0.00 0.00 32 1012.7
20260504173646 70 291 3.0 9.0 0.00 0.00 0.00 31 1012.6
20260504173144 70 359 2.0 5.0 0.00 0.00 0.00 31 1012.8
20260504172640 70 1 3.0 5.0 0.00 0.00 0.00 32 1012.7
20260504172137 70 77 1.0 5.0 0.00 0.00 0.00 32 1012.9
20260504171633 69 100 5.0 6.0 0.00 0.00 0.00 32 1012.8
20260504171131 69 46 2.0 7.0 0.00 0.00 0.00 32 1012.8
20260504170627 69 299 2.0 6.0 0.00 0.00 0.00 32 1012.7
20260504170125 68 108 6.0 8.0 0.00 0.00 0.00 33 1012.9
20260504151010 66 34 3.0 4.0 0.00 0.00 0.00 35 1014.5
20260504150508 66 211 4.0 9.0 0.00 0.00 0.00 35 1014.6
20260504140933 64 44 8.0 8.0 0.00 0.00 0.00 39 1014.8
20260504140430 64 54 4.0 6.0 0.00 0.00 0.00 40 1014.7
20260504130355 61 122 2.0 5.0 0.00 0.00 0.00 43 1015.4
20260504120317 57 345 3.0 9.0 0.00 0.00 0.00 49 1015.8
20260504110241 55 18 3.0 6.0 0.00 0.00 0.00 46 1015.6
20260504100205 53 359 2.0 5.0 0.00 0.00 0.00 46 1015.4
20260504090128 54 82 3.0 7.0 0.00 0.00 0.00 44 1015.1
20260504081558 56 62 2.0 7.0 0.00 0.00 0.00 38 1014.9
20260504081054 56 33 6.0 6.0 0.00 0.00 0.00 39 1014.8
20260504080551 56 36 4.0 6.0 0.00 0.00 0.00 38 1014.8
20260504050403 57 34 4.0 8.0 0.00 0.00 0.00 37 1014.2
20260504045900 57 37 6.0 6.0 0.00 0.00 0.00 36 1014.3
20260504045355 57 3 4.0 6.0 0.00 0.00 0.00 37 1014.1
20260504044853 57 62 2.0 5.0 0.00 0.00 0.00 36 1014.2
20260504044350 57 28 3.0 7.0 0.00 0.00 0.00 37 1014.3
20260504043848 57 58 2.0 7.0 0.00 0.00 0.00 37 1014.1
20260504043344 57 32 5.0 11.0 0.00 0.00 0.00 35 1014.1
20260504042842 57 68 4.0 4.0 0.00 0.00 0.00 36 1013.9
20260504042338 58 58 4.0 11.0 0.00 0.00 0.00 35 1014.1
20260504041834 58 76 3.0 6.0 0.00 0.00 0.00 35 1014.1
20260504041330 58 107 2.0 7.0 0.00 0.00 0.00 35 1013.9
20260504040826 58 7 2.0 9.0 0.00 0.00 0.00 35 1013.8
20260504040324 58 89 4.0 6.0 0.00 0.00 0.00 35 1014.0
20260504035820 58 53 3.0 4.0 0.00 0.00 0.00 34 1014.0
20260504035318 58 50 5.0 7.0 0.00 0.00 0.00 34 1013.8
20260504034815 58 73 3.0 6.0 0.00 0.00 0.00 35 1013.9
20260504034312 58 83 1.0 4.0 0.00 0.00 0.00 35 1013.9
20260504033809 58 53 3.0 6.0 0.00 0.00 0.00 34 1013.8
20260504033307 58 125 4.0 5.0 0.00 0.00 0.00 34 1013.8
20260504032803 58 309 2.0 4.0 0.00 0.00 0.00 34 1013.8
20260504032300 58 55 4.0 5.0 0.00 0.00 0.00 34 1013.9
20260504031757 58 81 3.0 6.0 0.00 0.00 0.00 34 1013.8
20260504031255 58 93 3.0 5.0 0.00 0.00 0.00 34 1013.7
20260504030750 58 109 4.0 12.0 0.00 0.00 0.00 33 1013.8
20260504030248 58 17 3.0 6.0 0.00 0.00 0.00 33 1013.9
20260504025744 58 60 7.0 8.0 0.00 0.00 0.00 33 1014.0
20260504025241 58 80 3.0 5.0 0.00 0.00 0.00 33 1013.7
20260504024738 59 120 2.0 4.0 0.00 0.00 0.00 33 1014.0
20260504024235 59 53 4.0 4.0 0.00 0.00 0.00 31 1013.9
20260504023732 59 50 2.0 4.0 0.00 0.00 0.00 31 1013.9
20260504023228 59 66 3.0 5.0 0.00 0.00 0.00 31 1013.9
20260504022724 59 104 6.0 6.0 0.00 0.00 0.00 31 1013.9
20260504022220 59 49 4.0 7.0 0.00 0.00 0.00 31 1013.9
20260504021718 59 72 2.0 4.0 0.00 0.00 0.00 30 1014.2
20260504021215 59 130 2.0 5.0 0.00 0.00 0.00 31 1014.0
20260504020711 59 63 1.0 3.0 0.00 0.00 0.00 31 1013.9
20260504020208 59 51 5.0 5.0 0.00 0.00 0.00 30 1013.9
20260504015704 59 72 3.0 4.0 0.00 0.00 0.00 30 1013.9
20260504015200 59 249 2.0 8.0 0.00 0.00 0.00 29 1013.8
20260504014656 59 114 1.0 5.0 0.00 0.00 0.00 30 1013.9
20260504014153 59 41 2.0 4.0 0.00 0.00 0.00 29 1013.7
20260504013651 59 1 2.0 3.0 0.00 0.00 0.00 29 1013.7
20260504013148 59 46 3.0 4.0 0.00 0.00 0.00 29 1013.8
20260504012645 59 87 2.0 4.0 0.00 0.00 0.00 29 1013.8
20260504012143 59 50 2.0 6.0 0.00 0.00 0.00 29 1013.6
20260504011639 59 323 7.0 9.0 0.00 0.00 0.00 29 1013.5
20260504011136 59 63 2.0 4.0 0.00 0.00 0.00 29 1013.5
20260504010632 59 34 2.0 4.0 0.00 0.00 0.00 29 1013.4
20260504010128 59 67 2.0 3.0 0.00 0.00 0.00 30 1013.4
20260504005625 59 7 1.0 3.0 0.00 0.00 0.00 29 1013.3
20260504005122 59 71 3.0 4.0 0.00 0.00 0.00 30 1013.3
20260504004620 59 52 2.0 2.0 0.00 0.00 0.00 29 1013.2
20260504004117 59 305 2.0 6.0 0.00 0.00 0.00 29 1013.3
20260504003613 59 317 5.0 6.0 0.00 0.00 0.00 29 1013.2
20260504003110 59 95 2.0 8.0 0.00 0.00 0.00 29 1013.1
20260504002606 59 313 3.0 5.0 0.00 0.00 0.00 28 1012.9
20260504002104 59 327 1.0 8.0 0.00 0.00 0.00 28 1012.9
20260504001602 59 302 11.0 20.0 0.00 0.00 0.00 28 1012.9
20260504001057 59 353 2.0 6.0 0.00 0.00 0.00 28 1012.7
20260504000555 59 315 2.0 11.0 0.00 0.00 0.00 28 1012.7
20260504000052 59 271 6.0 9.0 0.00 0.00 0.00 28 1012.8
20260503235550 60 314 5.0 7.0 0.00 0.00 0.00 28 1012.6
20260503235047 60 314 6.0 6.0 0.00 0.00 0.00 28 1012.5
20260503234544 60 307 5.0 6.0 0.00 0.00 0.00 27 1012.6
20260503234043 60 286 8.0 12.0 0.00 0.00 0.00 27 1012.5
20260503233539 60 277 6.0 9.0 0.00 0.00 0.00 27 1012.4
20260503233035 60 335 6.0 10.0 0.00 0.00 0.00 27 1012.2
20260503232532 60 320 8.0 10.0 0.00 0.00 0.00 27 1012.2
20260503232030 60 327 7.0 9.0 0.00 0.00 0.00 27 1012.2
20260503231527 60 286 11.0 17.0 0.00 0.00 0.00 26 1012.0
20260503231024 60 282 14.0 22.0 0.00 0.00 0.00 26 1012.0
20260503230520 60 80 3.0 10.0 0.00 0.00 0.00 26 1011.9
20260503230018 60 348 5.0 6.0 0.00 0.00 0.00 26 1012.0
20260503225515 60 349 9.0 18.0 0.00 0.00 0.00 26 1011.8
20260503225010 60 337 9.0 11.0 0.00 0.00 0.00 26 1011.9
20260503224508 60 320 16.0 17.0 0.00 0.00 0.00 25 1012.1
20260503224005 59 322 13.0 18.0 0.00 0.00 0.00 26 1012.0
20260503223503 59 313 16.0 25.0 0.00 0.00 0.00 25 1012.2
20260503222958 59 279 18.0 21.0 0.00 0.00 0.00 25 1012.0
20260503222457 59 65 3.0 12.0 0.00 0.00 0.00 26 1012.0
20260503221954 59 318 3.0 21.0 0.00 0.00 0.00 25 1011.9
20260503221452 59 286 4.0 16.0 0.00 0.00 0.00 26 1011.8
20260503220949 59 178 4.0 12.0 0.00 0.00 0.00 26 1011.8
20260503220445 59 282 7.0 18.0 0.00 0.00 0.00 25 1011.8
20260503215942 59 2 2.0 15.0 0.00 0.00 0.00 26 1012.0
20260503215439 59 334 5.0 6.0 0.00 0.00 0.00 26 1012.0
20260503214937 59 318 3.0 20.0 0.00 0.00 0.00 26 1012.0
20260503214435 59 336 8.0 10.0 0.00 0.00 0.00 26 1011.9
20260503213932 59 47 5.0 7.0 0.00 0.00 0.00 26 1012.0
20260503213430 59 292 14.0 18.0 0.00 0.00 0.00 26 1011.9
20260503212926 59 313 8.0 16.0 0.00 0.00 0.00 26 1011.9
20260503212423 59 295 13.0 17.0 0.00 0.00 0.00 26 1012.0
20260503211921 58 329 7.0 17.0 0.00 0.00 0.00 26 1011.9
20260503211418 58 1 2.0 16.0 0.00 0.00 0.00 26 1011.8
20260503210913 58 287 13.0 20.0 0.00 0.00 0.00 26 1011.9
20260503210410 58 59 2.0 21.0 0.00 0.00 0.00 27 1011.6
20260503205910 59 285 7.0 13.0 0.00 0.00 0.00 26 1011.7
20260503205408 58 286 6.0 16.0 0.00 0.00 0.00 27 1011.7
20260503204904 58 6 8.0 11.0 0.00 0.00 0.00 27 1011.6
20260503204401 57 53 2.0 3.0 0.00 0.00 0.00 28 1011.6
20260503203858 58 336 4.0 23.0 0.00 0.00 0.00 27 1011.6
20260503203355 57 295 10.0 16.0 0.00 0.00 0.00 27 1011.5
20260503202852 57 307 23.0 23.0 0.00 0.00 0.00 27 1011.7
20260503202350 57 310 5.0 15.0 0.00 0.00 0.00 27 1011.8
20260503201849 57 329 26.0 32.0 0.00 0.00 0.00 26 1012.1
20260503201345 58 331 12.0 21.0 0.00 0.00 0.00 27 1012.0
20260503200843 58 29 2.0 20.0 0.00 0.00 0.00 28 1012.0
20260503200338 58 308 13.0 15.0 0.00 0.00 0.00 28 1012.0
20260503195836 57 332 12.0 12.0 0.00 0.00 0.00 28 1011.9
20260503195332 58 346 11.0 14.0 0.00 0.00 0.00 28 1012.1
20260503194830 57 133 2.0 16.0 0.00 0.00 0.00 30 1012.0
20260503194326 57 271 9.0 21.0 0.00 0.00 0.00 28 1012.1
20260503193822 56 236 6.0 25.0 0.00 0.00 0.00 29 1012.1
20260503193318 56 294 8.0 26.0 0.00 0.00 0.00 29 1012.1
20260503192814 56 305 10.0 21.0 0.00 0.00 0.00 30 1012.5
20260503192309 57 183 5.0 23.0 0.00 0.00 0.00 29 1012.4
20260503191806 57 183 4.0 10.0 0.00 0.00 0.00 30 1012.3
20260503191303 56 306 3.0 18.0 0.00 0.00 0.00 30 1012.1
20260503190800 56 273 4.0 14.0 0.00 0.00 0.00 29 1012.4
20260503190257 55 310 6.0 13.0 0.00 0.00 0.00 32 1012.5
20260503185754 55 100 2.0 21.0 0.00 0.00 0.00 33 1012.7
20260503185249 55 46 6.0 19.0 0.00 0.00 0.00 32 1012.4
20260503184744 55 299 7.0 19.0 0.00 0.00 0.00 31 1012.8
20260503184241 55 308 3.0 12.0 0.00 0.00 0.00 32 1012.8
20260503183737 55 264 5.0 15.0 0.00 0.00 0.00 32 1012.7
20260503183235 55 328 17.0 24.0 0.00 0.00 0.00 32 1013.0